Regional Weather Roundup
Issued by NWS

Home | Current Version | Previous Version | Graphics & Text | Print | Product List | Glossary On
Versions: 1 2 3 4 5 6 7 8 9 10 11 12 13 14 15 16 17 18 19 20 21 22 23 24 25 26 27 28 29 30 31 32 33 34 35 36 37 38 39 40 41 42 43 44 45 46 47 48 49 50
000
ASUS43 KFSD 261510
RWRSD

WEATHER ROUNDUP FOR SOUTH DAKOTA
NATIONAL WEATHER SERVICE SIOUX FALLS SD
1000 AM CDT WED JUL 26 2017

NOTE: "FAIR" INDICATES FEW OR NO CLOUDS BELOW 12,000 FEET WITH NO
SIGNIFICANT WEATHER AND/OR OBSTRUCTIONS TO VISIBILITY.


SDZ001>005-009-010-012>017-261600-
NORTHWEST AND NORTH CENTRAL SOUTH DAKOTA

CITY           SKY/WX    TMP DP  RH WIND       PRES   REMARKS
BUFFALO          N/A     77  57  50 W5        30.11R
FAITH            N/A     78  56  46 NE12      30.14R
MOBRIDGE       SUNNY     78  60  53 N5        30.08R
$$

SDZ012>016-024>037-041>051-057-063-072>074-261600-
SOUTHWEST AND SOUTH CENTRAL SOUTH DAKOTA

CITY           SKY/WX    TMP DP  RH WIND       PRES   REMARKS
RAPID CTY ARPT CLOUDY    75  50  41 N8        30.18R
PIERRE         CLOUDY    75  64  68 NE12      30.06R
CUSTER         CLOUDY    67  47  48 E13       30.29R
ELLSWORTH AFB  CLOUDY    73  51  45 N7        30.18R
PHILIP         CLOUDY    78  64  61 E12       30.11R
PINE RIDGE     CLOUDY    76  63  64 NE8       30.15R
SPEARFISH      FAIR      70  54  56 CALM      30.22R
WINNER         CLOUDY    76  68  76 NE7       30.07R
$$

SDZ004>011-016>023-039-040-261600-
NORTHEAST SOUTH DAKOTA

CITY           SKY/WX    TMP DP  RH WIND       PRES   REMARKS
ABERDEEN       SUNNY     76  63  64 NE9       30.07R
WATERTOWN      CLOUDY    72  60  66 E8        30.07R
BROOKINGS      CLOUDY    74  68  81 NE12      30.06R
SISSETON         N/A     78  62  57 NE7       30.06R
$$

SDZ017-020-022-023-036>040-048>070-261600-
SOUTHEAST SOUTH DAKOTA

CITY           SKY/WX    TMP DP  RH WIND       PRES   REMARKS
SIOUX FALLS    PTSUNNY   76  70  82 E6        30.03R
HURON          CLOUDY    75  69  81 NE12      30.03S
CHAMBERLAIN    MOSUNNY   77  73  86 E9        30.05R
MITCHELL       CLOUDY    77  71  82 NE12      30.04R
YANKTON        CLOUDY    78  72  81 CALM      30.01R
$$

ABBREVIATIONS USED IN REMARKS
   TC - TEMPERATURE IN CELSIUS
  WCI - WIND CHILL INDEX
   HX - HEAT INDEX
  VSB - VISIBILITY




USA.gov is the U.S. government's official web portal to all federal, state and local government web resources and services.